EHI
0 0 0 0 0 0 0 0 0 0 0 0 0 0 1 2 2 3 5 10 15 17 17 17 14 13 17 24 28 25 18 16 18 16 13 13 15 17 17 18 16 12 10 10
0 0 0 0 0 0 0 0 0 0 0 0 0 0 0 1 1 2 5 11 16 18 19 20 17 16 21 28 32 28 21 20 21 20 18 17 18 17 16 17 16 13 11 11
0 0 0 0 0 0 0 0 0 0 0 0 0 0 0 0 0 1 5 9 14 18 22 23 22 22 25 31 34 31 29 27 25 22 20 18 17 16 15 18 19 15 12 11
0 0 0 0 0 0 0 0 0 0 0 0 0 0 0 0 0 1 4 8 13 18 23 25 25 25 27 31 36 39 39 36 30 23 18 16 15 15 17 21 22 19 14 11
0 0 0 0 0 0 0 0 0 0 0 0 0 0 0 0 1 2 5 9 13 18 22 25 26 27 27 29 38 45 48 45 37 26 19 15 15 17 19 22 24 22 17 13
0 0 0 0 0 0 0 1 1 1 0 0 0 0 0 1 3 5 8 12 14 17 23 26 28 29 28 29 35 45 54 53 44 33 25 21 20 19 19 21 22 22 19 16
0 0 0 0 0 0 0 1 1 1 0 0 0 0 1 3 5 9 12 14 15 18 23 28 31 32 32 31 35 48 58 58 50 40 34 30 26 21 19 19 20 21 20 18
0 0 0 0 0 0 0 0 0 0 0 0 0 1 4 6 7 10 13 14 16 18 22 27 30 31 31 32 38 50 60 61 55 49 44 40 32 24 19 19 18 18 19 18
0 0 0 0 0 0 0 0 0 0 0 0 0 2 5 8 8 10 12 14 16 16 19 23 25 27 28 32 38 47 57 62 59 55 52 48 38 27 22 20 19 18 18 18
0 0 0 0 0 0 0 0 0 0 0 0 0 1 5 8 8 9 13 16 17 16 17 20 22 24 28 33 36 43 54 60 60 57 54 49 42 33 26 23 21 21 20 19
0 0 0 0 0 0 0 0 0 0 0 0 0 2 4 7 7 10 15 20 20 18 17 18 19 23 30 34 36 43 53 57 56 53 51 48 45 39 31 26 25 24 23 22
0 0 0 0 0 0 0 0 0 0 0 0 1 3 5 6 7 11 17 22 23 20 19 19 20 26 34 38 40 47 54 55 53 51 49 47 46 42 35 32 30 30 28 26
0 0 0 0 0 0 0 0 0 0 0 0 1 3 5 6 8 12 17 22 22 21 22 25 29 37 44 46 48 53 56 56 54 52 49 46 45 43 39 36 36 37 35 31
0 0 0 0 0 0 0 0 0 0 0 0 1 3 4 6 9 14 18 20 20 22 27 35 45 52 54 56 57 58 57 56 55 54 51 47 45 45 41 37 37 39 38 35
0 0 0 0 0 0 0 0 0 0 0 1 2 3 4 7 11 15 19 21 20 23 30 43 56 62 63 63 63 61 59 58 57 56 53 49 47 47 45 41 39 39 38 36
0 0 0 0 0 0 0 0 0 0 1 2 2 3 5 9 13 17 19 22 23 25 31 43 57 64 66 66 65 62 62 61 60 58 55 51 48 47 45 43 42 41 39 38
1 1 1 0 0 0 0 0 0 1 2 2 3 4 6 11 15 16 18 22 24 26 32 41 53 61 64 64 65 65 64 64 62 59 56 52 49 46 43 42 42 42 40 39
2 3 3 1 0 0 0 0 1 2 3 3 3 5 8 11 14 15 18 22 25 28 33 41 50 55 58 60 62 65 65 63 61 60 55 52 50 48 44 42 43 43 41 39
2 4 2 0 0 0 0 0 1 3 3 4 5 6 7 8 10 14 20 25 28 33 39 45 46 48 53 57 60 63 63 62 60 58 54 52 51 49 48 46 45 45 42 39
2 2 1 0 0 0 0 0 1 3 4 5 5 5 7 8 10 17 26 32 37 42 46 47 45 46 51 58 61 62 61 62 61 58 55 54 52 51 50 48 47 46 44 40
1 1 1 0 1 1 0 0 2 6 9 8 5 5 7 10 14 24 34 40 43 46 47 47 46 47 52 58 62 63 62 61 62 61 60 58 53 50 48 48 47 46 43 40
0 0 2 3 3 3 3 3 7 14 17 12 7 5 7 11 18 28 38 41 42 43 45 46 46 48 52 56 61 63 62 60 60 60 60 57 52 46 44 45 46 45 43 40
1 1 4 7 8 7 7 8 11 16 17 13 8 5 6 11 20 30 37 39 40 42 44 45 46 48 53 56 58 61 61 59 58 58 56 52 47 42 41 42 42 42 41 39
3 3 6 9 11 10 9 9 11 13 13 11 8 6 7 12 23 32 37 40 43 44 45 46 48 50 54 55 55 58 59 56 55 54 51 46 41 38 38 39 38 38 38 35
4 4 6 8 10 10 10 9 9 10 10 9 9 10 12 16 25 32 37 39 41 44 46 48 50 52 53 52 52 53 54 52 49 47 44 39 35 33 33 32 29 27 26 24
3 4 5 7 9 10 12 11 10 9 10 8 9 12 16 20 26 33 36 36 37 42 47 49 51 50 49 49 49 49 49 47 44 41 38 33 31 30 29 25 20 16 14 12
Wind_Speed
14 12 12 11 10 9 6 5 2 3 5 4 5 9 11 11 11 11 12 12 11 10 11 10 9 9 9 8 6 5 4 4 2 1 1 2 2 1 2 3 4 4 3 3
13 14 13 12 11 9 6 5 3 3 4 4 4 6 9 10 10 11 12 12 13 12 11 10 9 9 9 9 7 6 4 4 3 2 1 1 1 2 3 3 3 3 3 2
16 12 13 12 12 8 7 6 5 4 4 5 5 6 9 10 10 11 12 12 13 14 13 12 10 9 10 10 8 6 5 4 3 3 2 2 2 2 2 2 2 2 2 2
14 13 12 13 12 9 8 8 7 7 6 5 7 5 8 10 10 11 11 12 13 14 14 13 11 10 9 10 9 7 6 5 4 3 2 2 2 2 2 2 2 2 2 2
14 14 14 14 12 10 9 8 9 8 8 8 8 5 6 11 11 12 13 13 13 13 14 13 12 10 9 10 9 8 7 5 4 3 2 2 1 2 2 2 3 2 2 2
15 14 14 13 12 12 9 9 8 9 8 10 9 6 6 8 11 12 13 13 13 13 14 13 12 11 9 9 9 9 8 6 5 4 3 2 1 2 2 2 2 2 2 2
16 15 14 12 13 12 12 9 6 7 7 8 8 7 5 6 8 9 11 13 13 13 13 13 13 12 10 10 9 9 9 7 6 5 3 3 2 2 2 1 2 2 2 2
15 14 14 13 13 11 12 12 8 7 8 7 8 6 5 7 7 9 11 13 13 14 13 13 13 13 12 11 9 10 9 8 7 5 4 3 3 2 2 2 2 1 2 2
11 11 11 13 13 13 13 12 11 10 12 8 6 5 5 5 6 9 11 13 13 13 14 14 14 13 13 12 11 10 10 8 7 6 5 4 3 2 2 2 2 2 1 3
11 9 11 11 11 14 15 12 9 9 7 8 8 6 5 8 7 8 11 12 12 12 13 13 12 12 12 12 11 10 10 9 8 7 6 5 4 3 2 2 3 3 3 2
12 11 11 11 13 13 13 14 10 8 9 9 7 4 4 7 8 7 9 11 12 12 13 13 12 11 11 11 11 10 10 9 8 7 5 5 5 4 4 3 3 3 3 3
11 10 11 13 13 12 12 12 11 9 8 8 7 3 3 5 6 6 7 7 9 10 11 11 11 12 11 11 11 10 10 10 8 7 6 5 5 5 5 4 4 3 3 3
6 8 10 13 13 12 13 13 12 11 9 9 9 4 4 3 3 5 7 7 6 7 8 9 9 9 9 9 9 10 9 10 9 8 8 6 6 5 5 5 4 4 4 3
6 8 12 13 8 9 12 13 13 12 9 9 8 5 5 4 4 4 5 6 6 6 6 8 8 8 8 8 8 8 8 9 9 8 8 7 6 5 5 5 5 4 4 4
8 11 13 15 14 13 13 14 14 14 13 12 9 8 7 5 4 6 6 7 6 5 6 7 8 8 8 8 8 8 8 8 8 8 7 7 7 6 5 5 5 5 5 5
8 9 12 15 16 16 16 15 15 15 13 11 10 10 8 4 4 4 5 5 6 5 5 7 7 7 8 8 8 7 7 7 7 8 7 7 7 7 6 5 5 5 5 4
8 8 10 13 15 15 17 15 14 13 12 11 11 8 6 3 2 4 5 5 4 4 4 4 5 6 6 7 7 7 7 7 7 7 7 7 7 7 7 7 6 6 5 5
9 7 7 12 13 17 12 10 12 12 12 10 9 7 6 4 2 3 4 5 5 4 5 5 5 5 5 6 7 6 7 7 7 7 7 7 7 7 7 6 6 5 5 4
11 9 9 10 13 15 12 12 12 11 11 9 7 5 5 5 4 3 3 4 5 4 4 4 5 5 5 5 6 6 6 7 7 7 7 7 7 7 6 6 6 5 5 4
12 9 10 10 13 14 9 7 7 9 10 7 5 4 4 3 4 2 3 3 3 4 3 3 4 4 5 5 6 6 7 7 8 7 7 7 7 7 7 6 6 5 5 4
12 12 14 14 14 11 6 4 5 9 4 2 3 3 2 2 2 2 3 4 4 3 2 2 3 3 4 5 6 6 6 5 5 6 7 7 6 6 6 6 5 5 5 4
12 11 12 12 13 10 2 5 4 2 3 2 3 2 1 1 1 1 4 4 3 2 2 2 2 3 4 5 6 6 5 5 5 6 7 7 7 6 6 6 5 5 5 5
10 9 6 6 6 1 3 2 2 2 1 2 3 3 2 2 1 1 3 3 3 2 1 2 2 4 4 5 6 6 5 6 6 6 6 6 6 5 6 6 6 5 5 5
6 5 6 5 4 2 2 3 2 1 2 2 3 3 2 2 1 1 2 2 2 1 1 2 3 4 4 4 5 5 6 6 6 6 6 6 6 6 5 5 5 5 4 5
7 6 7 6 5 4 5 4 4 3 3 3 5 4 2 1 1 1 1 2 2 1 1 1 2 3 4 4 4 6 6 6 7 6 6 6 6 6 5 3 2 3 2 2
6 6 7 5 4 4 5 4 4 4 4 4 4 4 3 2 1 0 1 2 2 2 1 2 3 3 4 4 5 5 6 6 6 6 6 5 5 5 5 5 4 6 4 5
Wind_Direction
221 229 235 237 235 240 235 244 204 173 171 180 155 157 167 173 173 164 161 160 160 156 154 151 150 140 132 127 126 123 124 120 128 124 129 122 114 99 90 85 76 73 64 65
224 227 237 244 245 248 238 251 232 191 175 210 186 170 164 179 184 172 167 167 162 160 157 155 156 149 142 138 136 133 134 139 149 131 125 119 111 104 102 89 96 90 78 72
229 229 230 237 242 242 245 245 245 232 222 229 210 195 172 182 186 172 171 171 166 165 162 161 163 159 154 150 151 154 150 146 152 149 153 130 117 95 85 97 100 93 89 86
235 237 237 236 240 232 238 244 244 233 237 248 234 212 190 181 185 179 178 175 171 167 164 164 167 165 163 157 155 146 144 147 152 166 172 157 142 126 125 127 121 123 117 102
233 235 237 237 240 242 243 239 249 246 245 248 245 246 204 172 188 186 183 181 170 166 165 167 168 165 164 159 155 148 142 148 154 173 164 166 138 124 128 130 133 130 132 128
244 239 238 237 241 242 242 240 249 258 259 248 238 239 212 186 190 185 180 174 168 166 166 166 165 160 166 163 158 151 149 152 157 172 172 160 143 123 126 129 138 149 121 105
236 237 235 233 237 233 230 234 239 242 243 249 238 232 183 186 176 173 168 165 165 166 165 165 164 163 166 165 160 151 151 156 163 174 170 160 160 149 151 162 139 137 128 125
227 225 221 224 234 234 231 235 236 251 251 252 238 225 170 154 150 155 162 159 165 167 167 167 168 165 168 166 161 154 154 161 164 167 162 158 165 169 161 151 143 123 121 121
241 234 225 220 233 236 236 239 244 251 259 260 240 207 151 144 159 161 159 160 168 169 167 167 168 169 169 168 166 162 156 159 162 162 157 151 153 146 130 125 127 110 106 120
256 253 237 220 230 232 240 246 249 251 259 259 259 234 198 166 183 177 167 164 167 168 166 165 168 167 166 166 164 161 156 159 162 164 169 161 161 147 139 127 102 99 94 92
247 250 241 231 227 232 227 237 247 259 265 259 248 236 173 160 174 173 171 166 165 170 168 165 165 164 162 164 163 160 158 160 164 166 165 154 154 151 147 138 126 121 114 109
240 249 243 238 233 236 244 243 246 249 260 273 274 230 168 170 164 169 160 153 164 169 163 157 161 160 163 164 163 159 159 163 165 161 157 158 151 155 157 143 131 128 120 116
258 254 241 233 225 220 236 241 243 252 257 258 261 224 199 164 156 146 145 144 154 156 155 149 150 153 156 159 158 159 162 165 166 163 164 161 157 159 155 143 136 135 131 125
269 255 254 249 244 230 229 241 245 245 253 256 256 247 230 200 191 151 144 140 148 149 140 140 137 145 149 150 151 154 159 163 162 161 166 164 164 161 156 147 145 145 137 131
249 252 257 263 261 256 248 237 241 244 252 260 262 254 243 221 184 167 156 152 153 152 138 131 138 148 148 150 151 157 163 163 161 159 164 164 162 156 154 151 150 147 146 144
245 265 263 262 260 257 256 247 246 245 246 247 251 259 260 243 186 152 143 152 155 153 147 139 138 143 150 154 157 160 160 159 156 159 163 159 158 156 157 154 152 146 142 137
235 251 261 259 259 256 251 244 246 250 249 249 250 252 257 245 194 153 154 162 163 151 139 143 149 150 153 154 155 160 158 156 158 160 160 159 159 160 162 162 156 152 151 149
247 257 254 255 258 249 246 250 247 250 251 255 255 252 242 227 201 181 180 169 167 159 155 157 160 155 158 159 154 159 162 159 160 163 164 161 163 166 161 157 158 154 153 154
232 235 247 251 252 252 245 243 247 249 250 251 258 259 239 227 191 193 166 151 150 150 142 146 156 163 160 158 157 161 165 166 164 167 166 162 162 163 160 162 161 157 154 153
219 220 234 245 252 253 245 237 251 252 244 240 247 262 255 241 228 176 114 137 127 110 119 137 161 164 160 158 157 165 174 173 172 170 163 157 158 164 165 163 156 152 151 154
215 215 225 238 247 253 261 262 259 245 244 313 256 254 240 250 304 90 105 100 101 112 124 136 145 154 162 160 155 167 171 175 168 159 154 154 153 158 158 152 151 150 149 148
223 222 223 233 243 244 262 250 255 15 30 351 336 316 334 327 69 108 119 118 119 126 144 157 155 158 158 159 158 164 166 163 157 151 154 153 155 166 162 153 155 158 159 159
234 235 233 229 241 300 12 36 63 78 42 336 320 318 334 312 277 100 113 122 136 150 163 178 178 169 161 160 162 167 158 150 147 148 154 154 155 155 157 160 164 169 173 178
252 263 256 246 230 255 317 325 320 354 314 306 297 297 295 277 305 55 109 113 115 131 188 186 178 169 157 159 163 155 146 146 149 155 155 157 159 166 165 166 173 179 184 186
285 278 272 263 259 273 269 274 276 281 289 292 303 307 296 332 357 42 97 130 135 133 209 190 177 165 154 146 147 144 144 151 157 159 161 168 170 164 158 148 142 171 148 175
280 280 267 264 284 287 287 292 286 284 285 290 296 309 327 333 353 142 169 148 154 174 202 199 185 177 163 154 147 149 153 158 161 167 171 174 170 162 162 150 117 53 80 97